GW5930 Weather Reports


time (UTC)temp
C
wind
direction
speed
KPH
gust
KPH
rain 1hr
cm
rain 24hr
cm
rain mn
cm
humidity
%
barometer
mb
20260504215008 25 166 6.4 14.5 0.00 0.00 0.00 34 1014.2
20260504214504 25 138 11.3 11.3 0.00 0.00 0.00 35 1014.1
20260504214000 25 128 6.4 12.9 0.00 0.00 0.00 36 1013.7
20260504213456 26 227 9.7 11.3 0.00 0.00 0.00 35 1013.9
20260504212954 25 133 11.3 11.3 0.00 0.00 0.00 34 1013.9
20260504212450 25 125 4.8 11.3 0.00 0.00 0.00 34 1013.8
20260504211948 25 169 6.4 16.1 0.00 0.00 0.00 34 1013.8
20260504211444 26 186 4.8 9.7 0.00 0.00 0.00 34 1013.9
20260504210942 26 245 11.3 14.5 0.00 0.00 0.00 35 1014.0
20260504210438 26 139 4.8 9.7 0.00 0.00 0.00 35 1014.1
20260504205935 26 196 4.8 6.4 0.00 0.00 0.00 36 1013.9
20260504205433 25 209 3.2 11.3 0.00 0.00 0.00 37 1013.9
20260504204931 25 124 9.7 19.3 0.00 0.00 0.00 33 1014.1
20260504204429 25 150 3.2 8.0 0.00 0.00 0.00 35 1014.3
20260504203928 25 136 8.0 9.7 0.00 0.00 0.00 35 1014.4
20260504203425 25 37 4.8 8.0 0.00 0.00 0.00 32 1014.3
20260504202921 26 329 3.2 6.4 0.00 0.00 0.00 33 1014.5
20260504202418 25 198 6.4 6.4 0.00 0.00 0.00 33 1014.6
20260504201914 25 266 11.3 16.1 0.00 0.00 0.00 33 1014.6
20260504201412 26 261 4.8 6.4 0.00 0.00 0.00 34 1014.7
20260504200909 26 142 0.0 4.8 0.00 0.00 0.00 35 1014.8
20260504200406 25 266 3.2 8.0 0.00 0.00 0.00 36 1014.8
20260504195903 25 320 4.8 4.8 0.00 0.00 0.00 35 1014.8
20260504195358 25 267 6.4 8.0 0.00 0.00 0.00 34 1014.9
20260504194855 25 237 14.5 16.1 0.00 0.00 0.00 34 1015.0
20260504194351 25 174 4.8 11.3 0.00 0.00 0.00 34 1015.1
20260504193847 25 183 6.4 8.0 0.00 0.00 0.00 37 1015.1
20260504193344 25 178 4.8 14.5 0.00 0.00 0.00 34 1015.1
20260504192843 25 219 6.4 16.1 0.00 0.00 0.00 37 1015.3
20260504192340 25 162 4.8 14.5 0.00 0.00 0.00 36 1015.4
20260504191838 24 57 3.2 9.7 0.00 0.00 0.00 35 1015.3
20260504191336 25 56 1.6 11.3 0.00 0.00 0.00 38 1015.4
20260504190831 24 313 1.6 12.9 0.00 0.00 0.00 34 1015.7
20260504190327 24 43 1.6 8.0 0.00 0.00 0.00 35 1015.7
20260504185824 23 276 6.4 8.0 0.00 0.00 0.00 35 1015.8
20260504185321 23 241 9.7 9.7 0.00 0.00 0.00 34 1015.8
20260504184817 24 278 4.8 9.7 0.00 0.00 0.00 33 1015.6
20260504184313 24 269 4.8 9.7 0.00 0.00 0.00 33 1015.9
20260504183809 23 243 4.8 6.4 0.00 0.00 0.00 33 1016.0
20260504183307 23 25 1.6 4.8 0.00 0.00 0.00 33 1016.3
20260504182804 24 204 6.4 12.9 0.00 0.00 0.00 31 1016.1
20260504182301 24 154 6.4 9.7 0.00 0.00 0.00 32 1016.1
20260504181759 23 134 8.0 14.5 0.00 0.00 0.00 37 1016.0
20260504181256 23 109 6.4 11.3 0.00 0.00 0.00 33 1016.3
20260504180755 23 189 3.2 6.4 0.00 0.00 0.00 35 1016.1
20260504180253 23 99 8.0 9.7 0.00 0.00 0.00 35 1016.1
20260504175750 23 170 6.4 12.9 0.00 0.00 0.00 33 1016.4
20260504175247 23 25 0.0 8.0 0.00 0.00 0.00 33 1016.5
20260504174745 23 277 3.2 6.4 0.00 0.00 0.00 35 1016.5
20260504174243 23 229 8.0 8.0 0.00 0.00 0.00 35 1016.5
20260504173739 22 71 1.6 4.8 0.00 0.00 0.00 35 1016.6
20260504173236 22 111 14.5 17.7 0.00 0.00 0.00 35 1016.8
20260504172733 23 74 14.5 16.1 0.00 0.00 0.00 37 1016.8
20260504172229 23 153 8.0 16.1 0.00 0.00 0.00 36 1016.9
20260504171726 23 126 4.8 12.9 0.00 0.00 0.00 37 1017.0
20260504171223 22 242 6.4 6.4 0.00 0.00 0.00 38 1016.7
20260504170720 22 61 3.2 8.0 0.00 0.00 0.00 37 1017.0
20260504170217 22 82 6.4 14.5 0.00 0.00 0.00 39 1017.0
20260504160135 22 210 3.2 4.8 0.00 0.00 0.00 37 1017.8
20260504151103 21 300 9.7 9.7 0.00 0.00 0.00 42 1017.7
20260504150600 21 70 8.0 14.5 0.00 0.00 0.00 41 1017.7
20260504141026 21 197 8.0 8.0 0.00 0.00 0.00 40 1017.8
20260504140522 20 103 3.2 8.0 0.00 0.00 0.00 45 1017.8
20260504130447 17 132 3.2 3.2 0.00 0.00 0.00 70 1017.9
20260504110334 5 151 3.2 3.2 0.00 0.00 0.00 99 1017.5
20260504100251 6 130 3.2 3.2 0.00 0.00 0.00 99 1017.3
20260504081645 7 151 0.0 1.6 0.00 0.00 0.00 99 1017.8
20260504081141 7 138 3.2 3.2 0.00 0.00 0.00 99 1017.8
20260504080637 7 164 0.0 1.6 0.00 0.00 0.00 99 1017.8
20260504080134 7 135 1.6 3.2 0.00 0.00 0.00 99 1017.7
20260504050450 8 151 0.0 3.2 0.00 0.00 0.00 98 1018.9
20260504045947 8 141 0.0 1.6 0.00 0.00 0.00 97 1018.8
20260504045443 8 154 0.0 1.6 0.00 0.00 0.00 97 1018.7
20260504044939 8 191 0.0 3.2 0.00 0.00 0.00 97 1018.6
20260504044437 8 138 3.2 4.8 0.00 0.00 0.00 97 1018.6
20260504043934 8 234 1.6 3.2 0.00 0.00 0.00 97 1018.5
20260504043431 9 159 1.6 3.2 0.00 0.00 0.00 96 1018.4
20260504042929 9 121 3.2 3.2 0.00 0.00 0.00 96 1018.4
20260504042425 9 224 0.0 1.6 0.00 0.00 0.00 94 1018.5
20260504041922 9 158 3.2 3.2 0.00 0.00 0.00 94 1018.5
20260504041418 9 153 1.6 3.2 0.00 0.00 0.00 94 1018.5
20260504040914 9 135 0.0 3.2 0.00 0.00 0.00 94 1018.4
20260504040412 9 212 0.0 3.2 0.00 0.00 0.00 93 1018.3
20260504035908 10 169 3.2 3.2 0.00 0.00 0.00 93 1018.3
20260504035405 10 171 0.0 1.6 0.00 0.00 0.00 93 1018.3
20260504034902 10 146 1.6 3.2 0.00 0.00 0.00 92 1018.4
20260504034359 10 145 3.2 4.8 0.00 0.00 0.00 91 1018.3
20260504033856 10 143 3.2 4.8 0.00 0.00 0.00 91 1018.5
20260504033354 10 250 3.2 3.2 0.00 0.00 0.00 92 1018.4
20260504032850 10 148 1.6 3.2 0.00 0.00 0.00 90 1018.4
20260504032347 10 162 3.2 3.2 0.00 0.00 0.00 91 1018.4
20260504031844 10 195 3.2 3.2 0.00 0.00 0.00 91 1018.2
20260504031342 10 153 1.6 3.2 0.00 0.00 0.00 91 1018.4
20260504030838 10 106 4.8 4.8 0.00 0.00 0.00 90 1018.4
20260504030335 10 130 3.2 3.2 0.00 0.00 0.00 88 1018.2
20260504025831 10 129 0.0 0.0 0.00 0.00 0.00 88 1018.3
20260504025328 11 248 3.2 4.8 0.00 0.00 0.00 87 1018.5
20260504024825 11 150 3.2 3.2 0.00 0.00 0.00 86 1018.4
20260504024321 11 149 3.2 3.2 0.00 0.00 0.00 85 1018.5
20260504023818 11 158 3.2 3.2 0.00 0.00 0.00 83 1018.2
20260504023315 11 135 3.2 3.2 0.00 0.00 0.00 82 1018.2
20260504022811 11 119 0.0 1.6 0.00 0.00 0.00 82 1018.3
20260504022308 11 77 1.6 1.6 0.00 0.00 0.00 81 1018.2
20260504021804 11 66 0.0 1.6 0.00 0.00 0.00 82 1018.3
20260504021302 11 159 1.6 1.6 0.00 0.00 0.00 81 1018.3
20260504020758 12 186 1.6 3.2 0.00 0.00 0.00 77 1018.1
20260504020255 12 161 3.2 3.2 0.00 0.00 0.00 76 1018.2
20260504015751 12 137 1.6 1.6 0.00 0.00 0.00 79 1018.1
20260504015248 12 133 1.6 1.6 0.00 0.00 0.00 79 1018.0
20260504014743 12 117 0.0 3.2 0.00 0.00 0.00 78 1017.9
20260504014240 12 130 0.0 0.0 0.00 0.00 0.00 77 1017.9
20260504013738 12 180 0.0 1.6 0.00 0.00 0.00 66 1017.9
20260504013235 13 156 1.6 3.2 0.00 0.00 0.00 71 1017.7
20260504012732 13 146 3.2 3.2 0.00 0.00 0.00 74 1017.6
20260504012230 13 224 0.0 0.0 0.00 0.00 0.00 68 1017.4
20260504011726 13 50 0.0 0.0 0.00 0.00 0.00 64 1017.4
20260504011223 13 129 0.0 1.6 0.00 0.00 0.00 71 1017.6
20260504010719 14 156 1.6 3.2 0.00 0.00 0.00 61 1017.2
20260504010215 15 171 1.6 3.2 0.00 0.00 0.00 72 1017.2
20260504005711 15 175 1.6 3.2 0.00 0.00 0.00 59 1017.1
20260504005209 15 198 3.2 3.2 0.00 0.00 0.00 55 1017.1
20260504004707 15 183 3.2 3.2 0.00 0.00 0.00 55 1017.1
20260504004203 15 192 3.2 3.2 0.00 0.00 0.00 53 1017.1
20260504003700 16 179 1.6 3.2 0.00 0.00 0.00 52 1016.9
20260504003157 16 177 3.2 3.2 0.00 0.00 0.00 52 1016.8
20260504002653 17 181 1.6 3.2 0.00 0.00 0.00 51 1016.9
20260504002151 18 191 3.2 3.2 0.00 0.00 0.00 48 1016.8
20260504001649 18 138 3.2 3.2 0.00 0.00 0.00 43 1017.0
20260504001144 18 113 1.6 1.6 0.00 0.00 0.00 43 1016.8
20260504000642 19 32 0.0 1.6 0.00 0.00 0.00 41 1016.9
20260504000139 20 20 3.2 4.8 0.00 0.00 0.00 40 1016.8
20260503235637 20 3 3.2 3.2 0.00 0.00 0.00 39 1016.8
20260503235133 20 302 4.8 6.4 0.00 0.00 0.00 37 1016.7
20260503234632 21 348 4.8 6.4 0.00 0.00 0.00 37 1016.8
20260503234130 21 2 1.6 4.8 0.00 0.00 0.00 37 1016.9
20260503233626 21 332 9.7 11.3 0.00 0.00 0.00 36 1016.8
20260503233122 21 325 8.0 9.7 0.00 0.00 0.00 36 1016.7
20260503232619 21 20 3.2 6.4 0.00 0.00 0.00 35 1016.7
20260503232116 21 60 3.2 6.4 0.00 0.00 0.00 36 1016.7
20260503231614 21 4 6.4 6.4 0.00 0.00 0.00 36 1016.8
20260503231110 22 13 9.7 14.5 0.00 0.00 0.00 34 1016.9
20260503230608 21 297 3.2 8.0 0.00 0.00 0.00 36 1016.7
20260503230104 22 309 9.7 9.7 0.00 0.00 0.00 34 1016.7
20260503225602 22 322 8.0 9.7 0.00 0.00 0.00 35 1016.8
20260503225056 22 331 6.4 11.3 0.00 0.00 0.00 34 1016.9
20260503224554 22 323 4.8 8.0 0.00 0.00 0.00 36 1016.9
20260503224052 22 354 6.4 12.9 0.00 0.00 0.00 36 1016.9
20260503223550 22 336 4.8 8.0 0.00 0.00 0.00 36 1016.8
20260503223045 22 0 8.0 12.9 0.00 0.00 0.00 34 1016.8
20260503222543 22 329 9.7 14.5 0.00 0.00 0.00 37 1016.8
20260503222041 22 246 6.4 16.1 0.00 0.00 0.00 36 1016.8
20260503221539 22 343 9.7 11.3 0.00 0.00 0.00 35 1016.9
20260503221036 22 287 6.4 8.0 0.00 0.00 0.00 34 1016.8
20260503220532 22 297 1.6 9.7 0.00 0.00 0.00 34 1016.8
20260503220029 22 303 9.7 12.9 0.00 0.00 0.00 34 1016.9
20260503215526 22 356 6.4 9.7 0.00 0.00 0.00 34 1016.8